Location: Munkebjergskolens Observatorium
(55.3864°N, 10.3987°E)
Time: 10:44:57
(UTC+02:00)

QB50P2 - Visible Passes

Search period start: 01 April 2023 00:00
Search period end: 11 April 2023 00:00
Orbit: 583 x 598 km, 98.0° (Epoch: 31 March)

Date Brightness Start Highest point End Pass type
(mag) Time Alt. Az. Time Alt. Az. Time Alt. Az.
01 Apr ? 01:46:14 10° ENE 01:47:09 12° ENE 01:47:09 12° ENE visible
01 Apr ? 03:19:55 10° NNE 03:23:43 70° NE 03:23:43 70° NE visible
01 Apr ? 04:56:17 10° NNW 04:59:10 18° NW 05:00:17 17° WNW visible
02 Apr ? 01:53:59 10° NE 01:55:37 14° ENE 01:55:37 14° ENE visible
02 Apr ? 03:28:11 10° NNE 03:32:10 81° N 03:32:10 81° N visible
02 Apr ? 05:04:45 10° NNW 05:07:20 16° NW 05:08:44 14° WNW visible
03 Apr ? 02:01:53 10° NE 02:04:03 16° E 02:04:03 16° E visible
03 Apr ? 03:36:26 10° NNE 03:40:36 75° WNW 03:40:36 75° WNW visible
03 Apr ? 05:13:15 10° NNW 05:15:28 14° NW 05:17:10 12° WNW visible
04 Apr ? 02:09:52 10° NE 02:12:28 19° E 02:12:28 19° E visible
04 Apr ? 03:44:41 10° N 03:48:49 64° WNW 03:49:02 63° W visible
04 Apr ? 05:21:47 10° NNW 05:23:34 13° NW 05:25:22 10° WNW visible
05 Apr ? 02:17:53 10° NE 02:20:52 22° E 02:20:52 22° E visible
05 Apr ? 03:52:55 10° N 03:57:00 54° WNW 03:57:26 51° W visible
05 Apr ? 05:30:29 10° NNW 05:31:39 11° NW 05:32:50 10° WNW visible
06 Apr ? 02:25:55 10° NE 02:29:15 26° E 02:29:15 26° E visible
06 Apr ? 04:01:10 10° N 04:05:10 46° WNW 04:05:49 42° W visible
07 Apr ? 02:33:58 10° NNE 02:37:37 30° E 02:37:37 30° E visible
07 Apr ? 04:09:24 10° N 04:13:17 39° WNW 04:14:11 35° W visible
08 Apr ? 02:42:02 10° NNE 02:45:53 35° E 02:45:58 35° E visible
08 Apr ? 04:17:37 10° N 04:21:23 34° WNW 04:22:32 29° W visible
09 Apr ? 02:50:05 10° NNE 02:54:03 41° E 02:54:18 41° ESE visible
09 Apr ? 04:25:50 10° N 04:29:28 30° WNW 04:30:51 24° W visible
10 Apr ? 02:58:09 10° NNE 03:02:12 49° E 03:02:36 47° ESE visible
10 Apr ? 04:34:03 10° N 04:37:31 26° WNW 04:39:10 20° W visible
